Bookmark and Share
Track history (hours):
 

Kristin D

Last reported at 2014-Apr-23 04:33 UTC. Time now 2014-Apr-24 13:55 UTC.
Position N 57°59' E 010°10'.

Length 90 m; draft 3.9 m.

Type: Cargo ship. MMSI: 311003700.

NotesDate/timePositionNaut miles runAvg speedWind from/ knotsBaromVisibWave heightAir tempDewpointWater temp
2014-Apr-23 04:33N 57°59' E 010°10'1111.4
2014-Apr-23 03:34N 57°54' E 010°29'1211.6
2014-Apr-23 02:33N 57°48' E 010°48'1110.9
2014-Apr-23 01:33N 57°37' E 010°46'1111.0
2014-Apr-23 00:33N 57°26' E 010°44'1611.1
2014-Apr-22 23:08N 57°11' E 010°45'  
2014-Apr-17 21:10N 54°52' E 010°53'711.4
2014-Apr-17 20:33N 54°45' E 010°53'8 8.3
2014-Apr-17 19:33N 54°40' E 011°05'9 9.2
2014-Apr-17 18:33N 54°39' E 011°21'0 0.1
2014-Apr-17 15:11N 54°39' E 011°21'1 0.0
2014-Apr-16 22:33N 54°39' E 011°20'1010.5
2014-Apr-16 21:33N 54°31' E 011°32'1512.8
2014-Apr-16 20:22N 54°27' E 011°58'910.8
2014-Apr-16 19:33N 54°31' E 012°11'1211.9
2014-Apr-16 18:33N 54°41' E 012°20'1111.5
2014-Apr-16 17:33N 54°51' E 012°31'1110.9
2014-Apr-16 16:33N 55°01' E 012°38'1111.2
2014-Apr-16 15:33N 55°12' E 012°38'1010.5
2014-Apr-16 14:33N 55°23' E 012°39'1110.5
2014-Apr-16 13:33N 55°33' E 012°42'8 7.7
2014-Apr-16 12:32N 55°41' E 012°39'0 0.0
2014-Apr-16 11:32N 55°41' E 012°39'0 0.0
2014-Apr-16 10:32N 55°41' E 012°39'0 0.0
2014-Apr-16 09:32N 55°41' E 012°39'0 0.0
2014-Apr-16 08:32N 55°41' E 012°39'0 0.0
2014-Apr-16 07:32N 55°41' E 012°39'0 0.0
2014-Apr-16 06:32N 55°41' E 012°39'0 0.0
2014-Apr-16 05:32N 55°41' E 012°39'0 0.0
2014-Apr-16 04:32N 55°41' E 012°39'0 0.0
2014-Apr-16 03:32N 55°41' E 012°39'0 0.0
2014-Apr-16 02:32N 55°41' E 012°39'0 0.0
2014-Apr-16 01:32N 55°41' E 012°39'0 0.0
2014-Apr-16 00:32N 55°41' E 012°39'0 0.0
2014-Apr-15 23:32N 55°41' E 012°39'0 0.0
2014-Apr-15 22:31N 55°41' E 012°39'0 0.0
2014-Apr-15 21:31N 55°41' E 012°39'1 0.8
2014-Apr-15 20:33N 55°40' E 012°40'1010.5
2014-Apr-15 19:33N 55°30' E 012°43'1212.4
2014-Apr-15 18:33N 55°18' E 012°40'3311.0
2014-Apr-15 15:32N 54°45' E 012°25'1111.2
2014-Apr-15 14:33N 54°35' E 012°18'12 5.9
2014-Apr-15 12:30N 54°25' E 012°08'1212.4
2014-Apr-15 11:34N 54°25' E 011°48'1212.2
2014-Apr-15 10:34N 54°30' E 011°29'6 0.4
2014-Apr-14 21:34N 54°35' E 011°23'10 9.9
2014-Apr-14 20:34N 54°29' E 011°37'1010.1
2014-Apr-14 19:33N 54°27' E 011°54'10 9.7
2014-Apr-14 18:34N 54°29' E 012°10'1111.3
2014-Apr-14 17:33N 54°39' E 012°18'1211.5
2014-Apr-14 16:33N 54°49' E 012°29'2311.2
2014-Apr-14 14:32N 55°11' E 012°37'1111.2
2014-Apr-14 13:34N 55°22' E 012°39'2210.8
2014-Apr-14 11:34N 55°44' E 012°39'3 3.0
2014-Apr-14 10:33N 55°41' E 012°38'0 0.0
2014-Apr-14 09:33N 55°41' E 012°38'0 0.0
2014-Apr-14 08:33N 55°41' E 012°38'0 0.0
2014-Apr-14 07:33N 55°41' E 012°38'0 0.0
2014-Apr-14 06:33N 55°41' E 012°38'0 0.0
2014-Apr-14 05:33N 55°41' E 012°38'4 0.6
2014-Apr-13 22:33N 55°45' E 012°40'1 1.4
2014-Apr-13 21:33N 55°44' E 012°41'7 6.8
2014-Apr-13 20:33N 55°37' E 012°42'7 7.4
2014-Apr-13 19:33N 55°29' E 012°43'8 7.8
2014-Apr-13 18:33N 55°22' E 012°41'1111.1
2014-Apr-13 17:33N 55°11' E 012°40'2611.2
2014-Apr-13 15:11N 54°45' E 012°25'711.6
2014-Apr-13 14:33N 54°39' E 012°20'1211.8
2014-Apr-13 13:33N 54°28' E 012°14'1211.5
2014-Apr-13 12:33N 54°25' E 011°55'1212.2
2014-Apr-13 11:33N 54°28' E 011°35'1211.7
2014-Apr-13 10:33N 54°37' E 011°21'  

Dump ship's entire track history

sailing weather and tide predictions

Kristin D — C6XA6 — position and weather